TimeMST,TemperatureF,Dew PointF,Humidity,Sea Level PressureIn,VisibilityMPH,Wind Direction,Wind SpeedMPH,Gust SpeedMPH,PrecipitationIn,Events,Conditions,WindDirDegrees,DateUTC
12:53 AM,33.1,17.1,52,30.17,10.0,WSW,15.0,-,N/A,,Clear,250,2013-01-20 07:53:00
1:53 AM,36.0,17.1,46,30.23,10.0,NW,16.1,-,N/A,,Clear,320,2013-01-20 08:53:00
2:53 AM,35.1,17.1,48,30.30,10.0,North,18.4,-,N/A,,Clear,10,2013-01-20 09:53:00
3:53 AM,30.9,18.0,59,30.37,10.0,NNE,13.8,-,N/A,,Clear,20,2013-01-20 10:53:00
4:53 AM,28.0,19.0,69,30.43,10.0,NE,11.5,-,N/A,,Partly Cloudy,50,2013-01-20 11:53:00
5:53 AM,25.0,18.0,75,30.49,10.0,NE,15.0,-,N/A,,Overcast,40,2013-01-20 12:53:00
6:14 AM,25.0,18.0,75,30.39,10.0,NE,13.8,-,N/A,,Overcast,40,2013-01-20 13:14:00
6:53 AM,24.1,18.0,77,30.53,10.0,NNE,6.9,-,N/A,,Overcast,30,2013-01-20 13:53:00
7:53 AM,23.0,18.0,81,30.54,10.0,ENE,5.8,-,N/A,,Overcast,60,2013-01-20 14:53:00
8:53 AM,21.9,17.1,82,30.56,10.0,ENE,8.1,-,N/A,,Overcast,60,2013-01-20 15:53:00
9:53 AM,21.0,16.0,81,30.56,10.0,ENE,9.2,-,N/A,,Overcast,60,2013-01-20 16:53:00
10:53 AM,19.9,15.1,81,30.55,10.0,ENE,10.4,-,N/A,,Overcast,70,2013-01-20 17:53:00
11:53 AM,21.0,14.0,74,30.51,10.0,NE,9.2,-,N/A,,Overcast,50,2013-01-20 18:53:00
12:53 PM,21.0,15.1,78,30.48,10.0,ENE,9.2,-,N/A,,Overcast,70,2013-01-20 19:53:00
1:53 PM,21.0,14.0,74,30.46,10.0,NE,11.5,-,N/A,,Overcast,50,2013-01-20 20:53:00
2:53 PM,19.9,12.0,71,30.46,10.0,ENE,11.5,-,N/A,,Overcast,60,2013-01-20 21:53:00
3:53 PM,19.0,10.9,71,30.46,10.0,NE,11.5,-,N/A,,Mostly Cloudy,40,2013-01-20 22:53:00
4:53 PM,18.0,10.9,74,30.47,10.0,ENE,8.1,-,N/A,,Mostly Cloudy,60,2013-01-20 23:53:00
5:53 PM,18.0,10.9,74,30.48,10.0,NE,8.1,-,N/A,,Mostly Cloudy,40,2013-01-21 00:53:00
6:53 PM,17.1,10.0,74,30.49,10.0,ENE,10.4,-,N/A,,Mostly Cloudy,60,2013-01-21 01:53:00
7:53 PM,17.1,10.0,74,30.48,10.0,NE,6.9,-,N/A,,Overcast,50,2013-01-21 02:53:00
8:53 PM,16.0,10.0,77,30.47,10.0,NE,8.1,-,N/A,,Mostly Cloudy,50,2013-01-21 03:53:00
9:53 PM,15.1,9.0,77,30.47,10.0,NE,8.1,-,N/A,,Overcast,40,2013-01-21 04:53:00
10:53 PM,14.0,9.0,80,30.46,10.0,North,4.6,-,N/A,,Overcast,10,2013-01-21 05:53:00
11:03 PM,14.0,9.0,80,30.28,10.0,NNE,4.6,-,N/A,,Overcast,20,2013-01-21 06:03:00
11:53 PM,16.0,10.0,77,30.40,10.0,Calm,Calm,-,N/A,,Overcast,0,2013-01-21 06:53:00